星链-30536 (STARLINK-30536 )

导读

STARLINK-30536是美国SpaceX公司星链星座的成员,于2023年10月5日发射入轨,属于第二代星链卫星,运行在近地低轨轨道。它配备先进相控阵天线与激光星间链路,可提供高速低延迟卫星互联网服务,支持手机直连等应用,为全球偏远地区、海洋等场景提供宽带通信覆盖,助力星链构建全球无缝天基通信网络。

Basic Information
目录编号:
57993
目录名称:
STARLINK-30536
国际标识:
2023-153C
轨道中心:
EARTH
卫星名称:
星链-30536
卫星全名:
星链-30536 (STARLINK-30536 )
卫星状态:
在轨 (已飞行1065 天)
发射日期:
2023-10-05 UTC
国别 :
美国 (US)
星等 :
--
Orbit Information
数据来源 国际轨道数据
星历时间: 2026-09-04T01:11:42+0800
12小时前
查看轨道信息
半长轴: 6861.183km
偏心率: 0.0001573
轨道倾角: 43.003°
近地点辐角 266.416°
升交点赤经 141.626°
平近点角 93.651°
近地点: 481.966km
远地点: 484.126km
周期: 94.267分钟
每日圈数: 15.275812
Detailed Information
固有亮度:
5
最大亮度:
0.3
卫星平台:
Starlink v2.0 mini
覆盖范围:
全球
运营商:
太空探索技术公司
运营商所在国:
美国
制造商(研发单位):
太空探索技术公司
制造商所在国:
美国
使用方式:
暂无
Satellite Introduction
星链(Starlink)计划是由太空探索技术公司(SpaceX)提出的一个巨型低轨卫星互联网星座项目,计划在2019年至2024年间在太空搭建由约1.2万颗卫星组成的“星链”网络,其中1584颗将部署在地球上空550千米处的近地轨道,并从2020年开始工作。该卫星仍在工作。
2D Orbit Map
3D Orbit Map
Orbit Altitude Analysis Chart
Orbit Inclination Analysis Chart
Orbit Comprehensive Analysis Chart
View Comprehensive Chart
Conjunction Data List
Event ID Objects TCA Miss Dist (km) Collision Risk Probability Collision Risk Index (CRI) Action
CDM_260903-210603-945105-799324
SWARM B (39451)
2026-09-03T
21:06:15+0000
1.333 km
极远距离
9.546916E-6 低风险 0.55
CDM_260902-155505-322005-799321
2026-09-02T
15:55:04+0000
1.982 km
极远距离
2.832485E-6 低风险 0.44
CDM_260902-164205-322005-799321
2026-09-02T
16:42:12+0000
2.864 km
极远距离
1.37823E-6 低风险 0.38
CDM_260830-172805-249005-799321
2026-08-30T
17:28:37+0000
2.885 km
极远距离
1.207991E-6 低风险 0.37